GW6357 Weather Reports


time (UTC)temp
C
wind
direction
speed
KPH
gust
KPH
rain 1hr
cm
rain 24hr
cm
rain mn
cm
humidity
%
barometer
mb
20260510164524 26 122 1.6 9.7 0.00 2.62 0.00 74 1016.9
20260510163026 26 47 3.2 11.3 0.00 2.64 0.00 74 1017.0
20260510161521 26 345 3.2 9.7 0.00 2.74 0.00 76 1017.0
20260510160025 26 65 3.2 8.0 0.00 2.87 0.00 80 1016.8
20260510154523 24 135 4.8 12.9 0.00 2.97 0.00 83 1016.6
20260510153022 23 105 4.8 11.3 0.00 3.15 0.00 87 1016.7
20260510151527 22 158 3.2 11.3 0.00 3.35 0.00 92 1016.7
20260510150012 22 78 4.8 9.7 0.00 3.68 0.00 94 1017.0
20260510144520 21 91 3.2 9.7 0.00 3.94 0.00 94 1017.0
20260510143024 21 117 6.4 9.7 0.00 4.19 0.00 95 1017.0
20260510141525 21 74 4.8 8.0 0.00 4.29 0.00 96 1017.1
20260510140009 20 71 3.2 9.7 0.00 4.34 0.00 97 1017.0
20260510134514 20 103 4.8 12.9 0.00 4.50 0.00 97 1016.7
20260510133018 20 99 4.8 8.0 0.00 4.65 0.00 98 1016.6
20260510131524 19 44 3.2 6.4 0.00 5.21 0.00 98 1016.4
20260510130008 18 71 4.8 9.7 0.00 6.07 0.00 98 1016.4
20260510124512 18 99 1.6 4.8 0.00 8.08 0.00 98 1016.2
20260510123016 18 94 1.6 6.4 0.00 8.08 0.00 98 1016.2
20260510121522 18 116 1.6 6.4 0.00 8.08 0.00 98 1016.0
20260510120026 18 108 3.2 8.0 0.00 8.08 0.00 98 1015.6
20260510114511 18 46 3.2 8.0 0.00 8.08 0.00 98 1015.2
20260510113013 18 87 4.8 8.0 0.00 8.08 0.00 98 1015.0
20260510111522 18 90 4.8 8.0 0.00 8.08 0.00 98 1014.5
20260510110033 18 101 1.6 3.2 0.00 8.08 0.00 98 1014.4
20260510104528 18 78 0.0 4.8 0.00 8.08 0.00 98 1014.1
20260510103010 18 53 1.6 6.4 0.00 8.08 0.00 98 1013.7
20260510101516 18 115 3.2 4.8 0.00 8.08 0.00 98 1013.5
20260510100030 18 80 0.0 4.8 0.00 8.08 0.00 98 1013.6
20260510094532 18 38 1.6 3.2 0.00 8.08 0.00 98 1013.5
20260510093026 18 355 1.6 8.0 0.00 8.10 0.00 98 1013.4
20260510091513 18 27 3.2 8.0 0.00 8.33 0.00 98 1013.4
20260510090020 18 333 3.2 9.7 0.00 10.64 0.00 98 1013.4
20260510084526 18 64 1.6 4.8 0.00 11.73 0.00 98 1013.3
20260510083026 18 102 0.0 4.8 0.00 11.73 0.00 98 1013.1
20260510081526 18 124 0.0 0.0 0.00 11.73 0.00 98 1013.0
20260510080017 18 110 0.0 0.0 0.00 11.73 0.00 98 1013.1
20260510074527 18 32 1.6 3.2 0.00 11.73 0.00 98 1013.1
20260510073025 18 75 3.2 4.8 0.00 11.73 0.00 98 1012.9
20260510071528 18 65 1.6 8.0 0.00 11.73 0.00 98 1012.9
20260510070033 18 349 6.4 8.0 0.00 11.73 0.00 98 1013.1
20260510064514 18 27 3.2 8.0 0.00 11.73 0.00 98 1013.0
20260510063024 19 45 0.0 3.2 0.00 11.73 0.00 98 1013.1
20260510061528 19 89 1.6 3.2 0.00 11.73 0.00 98 1013.1
20260510060032 19 114 0.0 4.8 0.00 11.73 0.00 98 1013.3
20260510054531 19 89 3.2 4.8 0.00 11.84 0.00 98 1013.0
20260510053019 19 32 0.0 3.2 0.00 11.86 0.00 98 1013.1
20260510051523 19 358 0.0 1.6 0.00 11.86 0.00 98 1013.3
20260510050028 19 357 1.6 3.2 0.00 11.86 0.00 98 1013.2
20260510044530 19 123 1.6 4.8 0.00 11.86 11.86 98 1013.1
20260510043030 19 150 1.6 3.2 0.00 11.86 11.86 98 1013.3
20260510041521 19 115 0.0 4.8 0.00 11.86 11.86 98 1013.1
20260510040004 20 119 3.2 3.2 0.00 11.86 11.86 98 1013.3
20260510034508 20 346 0.0 6.4 0.00 11.86 11.86 98 1013.7
20260510033013 20 354 1.6 3.2 0.00 11.86 11.86 98 1013.8
20260510031526 20 23 1.6 4.8 0.00 11.86 11.86 98 1013.6
20260510030023 20 131 1.6 3.2 0.00 11.86 11.86 98 1013.4
20260510024504 20 300 0.0 1.6 0.00 11.86 11.86 98 1013.6
20260510023010 20 323 4.8 8.0 0.05 11.86 11.86 98 1013.6
20260510021522 20 175 1.6 4.8 0.13 11.86 11.86 98 1013.0
20260510020025 20 158 1.6 3.2 0.13 11.86 11.86 98 1012.4
20260510014524 20 148 0.0 9.7 0.13 11.86 11.86 98 1012.1
20260510013007 20 128 4.8 8.0 0.10 11.84 11.84 98 1012.4
20260510011510 20 318 3.2 8.0 0.03 11.76 11.76 98 1013.1
20260510010014 20 157 0.0 4.8 0.03 11.76 11.76 98 1012.5
20260510004519 20 148 1.6 3.2 0.05 11.76 11.76 98 1012.5
20260510003026 20 122 0.0 4.8 0.13 11.73 11.73 97 1012.4
20260510001518 20 123 0.0 8.0 0.13 11.84 11.73 97 1012.4
20260510000015 20 91 1.6 3.2 0.13 11.86 11.73 97 1012.6
20260509234517 20 117 1.6 1.6 0.13 11.86 11.71 97 1012.9
20260509233022 20 165 0.0 1.6 0.03 11.79 11.61 97 1013.0
20260509231525 20 312 1.6 1.6 0.03 11.81 11.61 97 1013.0
20260509230008 20 311 3.2 4.8 0.08 11.86 11.61 97 1012.8
20260509224518 20 102 0.0 3.2 0.05 11.91 11.58 97 1011.7
20260509223022 19 137 1.6 6.4 0.05 11.91 11.58 97 1011.5
20260509221526 19 75 1.6 6.4 0.05 11.91 11.58 97 1012.0
20260509220027 20 224 0.0 4.8 0.00 11.91 11.53 97 1012.5
20260509214513 20 218 1.6 4.8 0.00 11.91 11.53 97 1012.4
20260509213016 19 289 1.6 4.8 0.03 12.01 11.53 97 1011.6
20260509211526 19 147 1.6 8.0 0.05 12.17 11.53 97 1010.8
20260509210028 19 148 3.2 8.0 0.10 12.19 11.53 97 1010.9
20260509204518 19 101 6.4 11.3 0.18 12.24 11.53 97 1011.0
20260509203015 19 250 0.0 3.2 0.28 12.29 11.51 97 1012.3
20260509201520 19 287 3.2 6.4 0.43 12.55 11.48 97 1012.8
20260509200022 19 141 0.0 6.4 0.53 12.65 11.43 97 1012.3
20260509194536 19 150 1.6 6.4 0.71 12.65 11.33 98 1012.4
20260509193010 19 142 3.2 8.0 0.71 12.55 11.23 98 1012.9
20260509191518 19 201 0.0 3.2 0.66 12.37 11.05 98 1013.1
20260509190024 19 150 3.2 6.4 0.64 12.22 10.90 98 1012.7
20260509184532 19 134 0.0 4.8 0.46 11.96 10.64 98 1013.1
20260509183031 18 157 1.6 9.7 0.48 11.84 10.52 98 1012.8
20260509181513 18 119 4.8 16.1 0.61 11.71 10.39 98 1012.5
20260509180020 18 123 4.8 12.9 0.86 11.58 10.26 97 1012.8
20260509174524 18 141 3.2 8.0 0.91 11.51 10.19 97 1013.3
20260509173026 18 94 6.4 12.9 0.79 11.33 10.03 97 1013.2
20260509171526 18 143 9.7 16.1 0.64 11.10 9.78 97 1012.8
20260509170016 17 122 3.2 11.3 0.38 10.69 9.40 97 1013.6